Regional Weather Roundup
Issued by NWS

Home | Current Version | Previous Version | Graphics & Text | Print | Product List | Glossary On
Versions: 1 2 3 4 5 6 7 8 9 10 11 12 13 14 15 16 17 18 19 20 21 22 23 24 25 26 27
000
ASUS45 KBOU 280907
RWRCO

WEATHER ROUNDUP FOR COLORADO
NATIONAL WEATHER SERVICE DENVER/BOULDER CO
300 AM MDT SUN MAY 28 2017

NOTE: "FAIR" INDICATES FEW OR NO CLOUDS BELOW 12000 FEET WITH NO
SIGNIFICANT WEATHER AND/OR OBSTRUCTIONS TO VISIBILITY.

COZ001>005-013-030-031-281000-
...NORTHWEST COLORADO...

CITY           SKY/WX    TMP DP  RH WIND       PRES   REMARKS
CRAIG          FAIR      34  30  85 CALM      30.33S
HAYDEN         FAIR      36  28  75 E10       30.34R
MEEKER         FAIR      33  30  88 NE7       30.33R WCI  27
RABBIT EARS PA NOT AVBL
STEAMBOAT SPGS NOT AVBL
WALDEN         NOT AVBL
$$

COZ006>008-011-281000-
...WEST CENTRAL VALLEYS...

CITY           SKY/WX    TMP DP  RH WIND       PRES   REMARKS
GRAND JUNCTION FAIR      56  30  37 NE15      30.24S
MONTROSE       FAIR      43  30  60 SE9       30.30S
EAGLE          FAIR      34  30  85 CALM      30.39R
RIFLE          FAIR      42  29  59 S3        30.31R
DELTA          FAIR      48  27  44 CALM      30.27S
NUCLA          FAIR      45  28  53 SE6       30.31S
$$

COZ017>023-064>068-281000-
...SOUTHWEST COLORADO...

CITY           SKY/WX    TMP DP  RH WIND       PRES   REMARKS
DURANGO        FAIR      45  23  42 N6        30.24S
CORTEZ         FAIR      43  30  60 E3        30.23S
PAGOSA SPRINGS FAIR      37  23  55 CALM      30.29S
TELLURIDE      FAIR      37  26  64 S7        30.38F
WOLF CREEK PAS NOT AVBL
$$

COZ009-010-012-014-032>034-037-058>063-281000-
...CENTRAL COLORADO...

CITY           SKY/WX    TMP DP  RH WIND       PRES   REMARKS
ASPEN          FAIR      34  29  82 SW7       30.37S WCI  28
BUENA VISTA    FAIR      36  28  74 NW7       30.38S
COPPER MTN     NOT AVBL
BERTHOUD PASS  NOT AVBL
COTTONWOOD PAS NOT AVBL
GUNNISON       FAIR      34  25  69 N3        30.37R
KREMMLING      NOT AVBL
LEADVILLE      FAIR      22  19  89 NE6       30.41S WCI  14
SALIDA         FAIR      37  28  70 W6        30.44S
SUNLIGHT       NOT AVBL
WILKERSON PASS NOT AVBL
$$

COZ069>075-281000-
...SAN LUIS VALLEY/SANGRE DE CRISTO MOUNTAINS...

CITY           SKY/WX    TMP DP  RH WIND       PRES   REMARKS
ALAMOSA        FAIR      35  30  82 SW5       30.31S WCI  31
DEL NORTE      NOT AVBL
LA VETA PASS   NOT AVBL
SAGUACHE       NOT AVBL
$$

COZ035-036-038>040-281000-
...NORTHERN COLORADO FRONT RANGE...

CITY           SKY/WX    TMP DP  RH WIND       PRES   REMARKS
DENVER INTL AP FAIR      43  38  82 SW10      30.25S
DMNS CITY PARK   N/A     44  38  78 SE7       30.26S
AURORA         CLEAR     42  39  89 SW6       30.26F
FRONT RANGE AP NOT AVBL
ERIE MUNI ARPT NOT AVBL
BOULDER MUN AP NOT AVBL
CENTENNIAL     FAIR      43  37  79 W9        30.27S
BROOMFIELD     NOT AVBL
FORT COLLINS   FAIR      44  40  85 CALM      30.25S
LONGMONT       NOT AVBL
$$

COZ041-046-047-076>085-087-088-281000-
...PIKES PEAK/PALMER DIVIDE AND SOUTHERN FOOTHILLS...

CITY           SKY/WX    TMP DP  RH WIND       PRES   REMARKS
COLO. SPRINGS  FAIR      43  36  76 NW5       30.29F
A. F. ACADEMY  FAIR      33  33  98 N9        30.29F WCI  26
SCHRIEVER AFB  FAIR      46  34  62 NW10      30.29F
CHEYENNE MTN   FAIR      47  29  50 NW7       30.25F
ELLICOTT       FAIR     N/A N/A N/A N5        30.27F
FALCON         FAIR      39  33  78 W8        30.31F
FORT CARSON    FAIR      40  36  87 NW8       30.27F
LIMON          FAIR      40  38  93 W9        30.24S
MONUMENT HILL  NOT AVBL
CANON CITY     NOT AVBL
WALSENBURG     FAIR      45  43  93 W13       30.29S
TRINIDAD       FAIR      42  38  85 SW6       30.27S
$$

COZ042>045-048>051-090-091-281000-
...NORTHEAST COLORADO...

CITY           SKY/WX    TMP DP  RH WIND       PRES   REMARKS
GREELEY ARPT   FAIR      40  39  97 CALM      30.24S
AKRON          FAIR      43  39  86 W14       30.19F
BURLINGTON     FAIR      46  43  89 W12       30.16F
WRAY           FAIR      43  43 100 SW7       30.14F
YUMA           NOT AVBL
STERLING       NOT AVBL
HOLYOKE        NOT AVBL
FORT MORGAN    FAIR      42  40  91 W7        30.21S
$$

COZ086-089-092>099-281000-
...SOUTHEAST COLORADO...

CITY           SKY/WX    TMP DP  RH WIND       PRES   REMARKS
PUEBLO         FAIR      47  43  86 W8        30.24F
LA JUNTA       FAIR      50  47  89 NW7       30.20F
LAMAR          FAIR      48  45  89 W8        30.15F
SPRINGFIELD      N/A     47  45  93 NW14      30.18S
$$




USA.gov is the U.S. government's official web portal to all federal, state and local government web resources and services.